SCP
0 1 1 1 0 0 0 0 0 0 0 0 0 0 0 0 0 0 1 1 1 1 1 1 1 1 1 1 0 0 0 0 0 0 0 0 0 0 0 0 0 0 0
0 1 1 1 1 0 0 0 0 0 0 0 0 1 1 1 1 1 1 1 1 1 1 1 1 1 1 1 1 1 1 0 0 0 0 0 0 0 0 0 0 0 0
0 1 1 1 1 0 0 0 0 0 0 1 1 1 1 1 1 1 1 1 1 1 1 1 1 1 1 1 1 1 1 1 0 0 0 0 0 0 0 0 0 0 0
1 1 1 1 0 0 0 0 0 0 1 1 1 1 1 1 1 1 1 1 1 1 1 1 1 1 1 1 1 1 1 1 1 0 0 0 0 0 0 0 0 0 0
0 1 1 0 0 0 0 0 0 0 0 0 0 0 0 0 1 1 1 1 1 1 1 1 1 1 1 1 1 1 1 1 1 1 0 0 0 0 0 0 0 0 0
0 0 0 0 0 0 0 0 0 0 0 0 0 0 0 0 0 1 1 1 1 1 1 1 1 1 1 1 1 1 1 1 1 1 1 0 0 0 0 0 0 0 0
0 0 0 0 0 0 0 0 0 0 0 0 0 0 0 0 0 0 0 0 1 1 1 1 1 1 1 1 1 1 1 1 1 1 0 0 0 0 0 0 0 0 0
0 0 0 0 0 0 0 0 0 0 0 0 0 0 0 0 0 0 0 0 1 1 1 1 1 1 1 1 1 1 1 1 1 0 0 0 0 0 0 0 0 0 0
0 0 0 0 0 0 0 0 0 0 0 0 0 0 0 0 0 0 0 0 0 1 1 1 1 1 1 1 1 1 1 1 1 0 0 0 0 0 0 0 0 0 0
0 0 0 0 0 0 0 0 0 0 0 0 0 0 0 0 0 0 0 1 1 0 0 0 0 0 0 1 1 1 1 1 1 1 1 1 1 1 0 0 0 0 0
0 0 0 0 0 0 0 0 0 0 0 0 0 0 0 0 0 0 0 0 1 0 0 0 0 0 0 0 1 1 1 1 1 1 1 1 1 1 1 1 0 0 0
0 0 0 0 0 0 0 0 0 0 0 0 0 0 0 0 0 0 0 0 0 0 0 0 0 0 0 0 0 1 1 1 1 1 1 1 1 1 1 1 1 1 0
0 0 0 0 0 0 0 0 0 0 0 0 0 0 0 0 0 0 0 0 0 0 0 0 0 0 0 0 0 1 1 1 1 1 1 1 1 1 1 1 1 1 1
0 0 0 0 0 0 0 0 0 0 0 0 0 0 0 0 0 0 0 0 0 0 0 0 0 0 0 0 0 1 1 1 1 1 1 1 1 1 1 1 1 1 1
0 0 0 0 0 0 0 0 0 0 0 0 0 0 0 0 0 0 0 0 0 0 0 0 0 1 1 1 1 1 1 1 1 1 1 1 1 1 1 1 1 1 1
0 0 0 0 0 0 0 0 0 0 0 0 0 0 0 0 0 0 0 0 0 0 0 0 0 0 1 1 0 1 1 1 1 1 1 1 1 1 1 1 1 1 1
0 0 0 0 0 0 0 0 0 0 0 0 0 0 0 0 0 0 0 0 0 0 0 0 0 0 0 0 0 0 1 1 1 1 1 1 1 1 1 1 1 1 1
1 1 0 0 0 0 0 0 0 0 0 0 0 0 0 0 0 0 0 0 0 0 0 0 0 0 0 0 0 0 1 1 1 1 1 1 1 1 1 1 2 1 1
1 1 1 1 0 0 0 0 0 0 0 0 0 0 0 0 0 0 0 0 0 0 0 0 0 0 0 0 0 0 1 1 1 1 1 1 1 1 1 1 2 1 1
1 1 1 1 1 0 0 0 0 0 0 0 0 0 0 0 0 0 0 0 0 0 0 0 0 0 0 0 0 0 1 1 1 1 1 1 1 1 1 1 1 1 1
1 1 1 1 1 0 0 0 0 0 0 0 0 0 0 0 0 0 0 0 0 0 0 0 0 0 0 0 0 0 0 1 1 1 1 1 1 1 1 1 1 1 1
0 0 1 1 0 0 0 0 0 0 0 0 0 0 0 0 0 0 0 0 0 0 0 0 0 0 0 0 0 0 0 0 0 1 1 1 1 1 1 1 1 1 1
0 0 0 0 0 0 0 0 0 0 0 0 0 0 0 0 0 0 0 0 0 0 0 0 0 0 0 0 0 0 0 0 0 0 1 1 1 1 1 1 1 1 1
1 0 0 0 0 0 0 0 0 0 0 0 0 0 0 0 0 0 0 0 0 0 0 0 0 0 0 0 0 0 0 0 0 0 1 1 1 1 1 1 1 1 1
0 0 0 0 0 0 0 0 0 0 0 0 0 0 0 0 0 0 0 0 0 0 0 0 0 0 0 0 0 0 0 0 0 0 0 1 1 1 1 1 1 1 1
0 0 0 0 0 0 0 0 0 0 0 0 0 0 0 0 0 0 0 0 0 0 0 0 0 0 0 0 0 0 0 0 0 0 0 0 1 1 1 1 2 1 1
Wind_Speed
6 7 8 6 7 7 7 7 6 6 6 6 5 5 4 3 3 3 3 2 2 2 3 3 3 3 4 4 4 4 4 5 5 4 4 3 3 4 4 5 6 4 8
7 8 9 7 7 7 6 6 6 6 5 5 5 5 4 4 4 3 3 2 2 2 2 3 3 3 3 3 4 4 4 5 5 4 4 1 1 3 4 5 7 6 7
8 8 9 7 7 7 6 6 6 6 5 5 5 4 4 4 4 3 3 3 3 3 3 3 3 3 3 3 3 4 4 5 5 4 6 3 2 3 4 4 5 5 5
8 7 8 8 7 7 7 6 6 6 6 5 4 4 4 4 4 4 4 4 4 4 4 4 4 3 3 3 4 4 4 5 5 6 5 3 2 6 4 4 4 4 4
8 7 9 7 7 7 7 6 6 6 6 5 5 4 4 4 4 4 4 4 4 4 4 4 4 4 4 4 4 4 4 4 5 7 4 3 3 4 4 3 4 4 4
8 8 9 7 7 7 7 6 6 6 6 5 5 4 4 4 4 4 4 5 5 5 5 4 4 5 5 4 4 4 4 5 7 3 3 3 2 4 3 3 3 3 4
8 8 9 7 7 7 7 6 6 6 6 5 5 5 5 5 5 5 5 5 5 5 5 5 4 5 5 5 5 5 5 5 7 4 4 3 2 4 3 2 2 3 3
7 7 8 8 6 6 6 6 6 5 6 5 5 5 5 5 5 5 5 5 5 5 5 5 5 5 5 6 6 5 5 7 6 5 4 3 3 3 3 2 2 2 2
6 6 5 7 8 7 6 5 5 5 6 6 6 6 6 5 5 5 5 5 5 5 5 5 5 5 6 6 6 5 5 5 7 5 5 2 3 3 3 1 1 1 1
6 5 5 4 4 4 5 6 5 5 5 5 5 6 4 1 1 2 3 5 6 6 5 5 5 6 6 6 6 5 5 7 7 5 4 1 2 4 3 1 1 0 1
5 4 4 4 3 2 2 4 3 4 3 0 2 3 3 3 4 2 7 7 6 6 6 5 5 5 7 6 5 4 6 5 4 5 3 3 2 3 3 1 2 2 2
6 5 4 3 3 2 1 1 0 0 1 2 3 3 3 4 4 5 2 2 3 4 3 2 4 6 8 4 4 7 5 5 5 4 1 2 2 3 3 2 2 3 3
5 5 4 3 3 1 1 0 1 1 1 2 3 3 3 4 3 3 3 1 2 4 4 2 5 4 4 4 4 4 4 4 3 3 1 2 2 3 3 3 3 3 4
5 4 4 3 3 2 1 0 1 1 1 2 2 4 4 3 4 4 3 4 4 3 4 5 4 5 6 6 5 5 4 4 3 2 1 2 3 3 3 3 4 4 5
6 5 4 3 2 1 1 1 1 1 2 2 2 3 4 3 4 4 3 4 5 4 4 5 5 5 6 5 5 5 5 5 5 4 1 3 2 3 3 3 3 4 5
7 6 5 5 3 2 2 2 0 1 0 2 2 3 4 3 4 4 4 4 5 5 5 5 6 5 5 4 5 4 5 4 4 4 4 4 4 2 2 3 3 4 5
7 6 6 4 4 3 2 1 1 1 1 2 2 3 3 4 4 4 5 5 5 5 5 5 6 5 4 4 4 4 4 4 4 4 3 3 3 5 4 3 3 4 5
7 6 6 5 5 3 2 2 1 1 1 1 1 2 4 4 4 4 4 5 5 5 5 4 5 4 4 3 3 3 3 2 4 3 3 3 2 2 5 4 2 3 4
7 7 7 6 5 4 3 2 1 1 1 1 1 2 3 4 5 4 4 5 5 5 5 5 4 5 4 4 3 2 2 2 2 3 3 2 2 2 3 4 4 3 4
8 7 7 6 6 5 4 3 2 1 1 1 1 1 3 3 5 5 4 5 5 4 4 5 5 4 4 4 3 2 1 1 2 2 2 2 2 2 2 3 4 5 6
8 8 8 8 7 6 4 3 2 2 1 1 1 2 2 3 4 4 4 5 5 5 5 6 5 4 3 3 3 2 1 1 0 1 2 1 2 2 2 3 2 3 4
9 9 9 8 8 7 4 2 1 1 1 1 1 1 2 3 4 4 5 4 4 4 5 5 4 4 3 3 3 3 1 2 1 0 0 1 1 1 2 2 2 3 3
8 9 8 8 8 7 6 3 2 2 2 2 2 1 2 2 3 4 5 5 4 4 4 5 5 5 4 3 3 3 3 1 0 1 1 0 1 0 1 1 2 2 3
7 7 8 8 8 8 7 5 4 3 2 2 2 1 2 2 2 3 4 4 4 4 4 4 5 4 4 3 2 2 3 3 2 0 1 1 1 1 0 0 1 1 2
4 5 6 8 8 8 7 6 5 4 2 2 2 2 3 1 2 2 3 3 4 3 4 4 4 5 4 4 3 2 2 2 3 1 0 0 1 1 1 0 0 1 1
3 4 5 7 7 7 8 7 7 5 4 3 3 3 3 2 2 2 3 3 3 3 3 4 4 3 4 4 3 2 2 2 2 1 1 0 1 1 1 1 1 1 1
Wind_Direction
136 129 119 128 121 118 118 117 116 112 108 105 104 102 97 92 90 84 80 69 53 43 37 33 33 33 29 29 30 28 24 20 18 13 10 10 14 15 13 4 341 30 41
129 125 120 123 121 120 117 114 110 105 100 95 89 82 75 70 68 62 54 46 38 32 23 10 11 14 15 15 18 19 14 8 5 4 344 280 84 21 8 8 2 27 31
128 126 130 121 117 113 110 109 104 97 89 82 75 66 59 54 48 37 26 12 3 357 353 349 350 353 359 357 0 3 3 359 357 341 288 281 94 65 18 21 21 27 30
123 122 110 112 110 105 101 99 92 85 79 72 66 57 47 39 29 18 5 353 347 338 330 323 326 326 332 339 344 345 350 350 345 308 284 356 3 64 19 21 19 21 27
116 111 104 107 102 100 94 89 85 79 72 65 58 50 39 24 9 1 353 341 336 328 317 313 316 314 315 322 328 330 336 335 320 288 334 339 342 47 7 9 11 13 24
116 112 106 104 100 97 93 88 82 75 68 60 50 39 27 15 2 357 350 338 331 323 315 314 311 304 305 310 315 318 325 326 289 305 315 310 335 42 355 1 8 6 19
120 116 111 102 100 96 91 85 79 73 67 58 47 34 23 14 3 355 342 330 325 323 319 317 317 310 307 309 308 309 318 313 288 292 282 292 4 8 334 350 357 1 18
118 118 115 113 99 92 87 82 75 67 62 55 45 31 21 13 4 356 348 338 329 321 315 314 310 305 301 298 298 301 305 295 274 277 276 284 36 329 311 330 350 353 17
124 120 118 124 126 117 94 78 71 64 54 45 37 31 26 22 13 4 351 344 333 324 317 312 306 304 301 298 295 290 290 295 283 271 270 278 43 309 293 305 334 338 49
140 134 125 119 111 114 118 99 75 63 52 46 41 32 14 347 38 355 321 13 344 336 329 324 314 307 301 292 290 284 278 267 261 265 264 40 18 300 281 262 256 242 152
151 148 143 136 123 110 92 103 122 106 75 57 104 76 297 334 355 308 31 12 356 347 339 336 326 308 288 247 245 262 257 253 260 264 262 53 319 294 278 246 210 204 185
165 162 159 161 153 152 124 119 124 90 62 2 9 9 349 2 352 336 85 9 353 336 297 332 306 269 261 258 204 217 245 246 250 250 214 96 286 282 277 251 210 201 193
164 165 169 171 173 180 171 259 3 7 14 355 5 355 340 339 336 337 334 318 312 298 311 308 270 289 297 297 289 265 265 268 263 262 169 108 273 271 271 247 211 203 197
181 178 176 189 184 186 207 122 264 305 341 355 359 348 347 348 334 354 336 344 327 327 329 312 306 304 301 291 279 277 264 253 259 266 173 126 272 269 262 243 209 204 202
190 192 190 202 212 181 144 256 257 323 334 6 357 337 348 340 342 350 340 341 326 328 317 313 305 314 302 297 289 282 275 262 260 252 214 164 235 261 256 246 224 209 198
199 194 182 198 199 214 211 227 269 320 311 330 348 345 347 344 342 338 337 341 338 332 329 313 313 308 296 294 285 284 276 264 259 254 253 188 183 219 243 249 241 220 200
201 196 185 193 199 211 233 254 265 275 313 335 353 342 351 350 340 340 340 342 346 335 326 320 319 306 296 287 274 269 262 264 268 263 256 246 199 176 187 218 228 223 206
206 200 184 191 197 193 200 226 234 261 317 335 346 340 344 351 346 344 341 344 343 332 331 327 320 314 303 295 288 277 259 240 250 256 247 223 227 208 170 176 200 211 197
210 202 191 193 196 182 174 189 216 229 283 323 335 348 341 347 343 344 345 341 340 337 337 331 340 323 318 311 292 273 269 257 252 251 247 235 213 211 192 153 173 191 194
211 203 193 186 191 171 170 185 178 218 233 287 334 352 339 337 342 339 334 340 342 339 340 339 337 325 315 309 302 306 287 268 244 254 259 242 222 205 200 192 187 179 185
204 201 191 190 181 174 172 191 206 212 230 250 307 347 321 324 332 335 328 340 340 346 342 340 338 325 323 323 295 281 217 226 284 254 259 258 215 200 189 195 209 199 180
202 198 195 191 184 184 180 183 196 241 259 295 274 266 297 320 327 326 331 332 344 339 342 349 345 328 333 329 312 295 246 166 157 92 300 263 253 189 203 196 192 202 215
203 199 196 191 184 186 176 168 168 186 226 219 237 255 289 308 316 321 330 332 339 337 356 348 343 339 328 333 342 320 312 342 59 109 56 66 31 312 208 213 189 200 193
203 200 198 191 189 183 180 192 201 229 262 287 286 274 258 270 300 311 320 325 332 340 346 342 357 335 324 326 340 332 328 335 298 166 123 64 53 45 41 206 172 174 170
189 192 195 189 190 186 192 195 216 236 258 266 262 255 268 266 281 291 307 315 328 333 344 344 343 340 335 334 333 329 320 310 284 286 221 126 84 50 34 75 140 152 139
147 175 187 190 191 190 198 204 220 234 243 250 254 262 262 256 263 267 284 299 314 332 336 336 332 341 341 341 330 332 327 317 309 300 263 204 113 63 64 73 84 107 122